Probability
1 1 0 0 0 0 0 0 0 0 0 0 0 0 0 1 1 2 4 6 8 11 11 8 4 1 0 0 0 0 0 0 0 0 0 0 0 0 0 0 0 0 0 0 0 0 0 0 0
1 0 0 0 0 0 0 0 0 0 0 0 0 0 1 3 4 5 6 7 9 11 10 8 4 1 0 0 0 0 0 0 0 0 0 0 0 0 0 0 0 0 0 0 0 0 0 0 0
0 0 0 0 0 0 0 0 0 0 0 1 1 2 4 7 8 8 8 9 11 11 10 8 5 1 0 0 1 0 0 0 0 0 0 0 0 0 0 0 0 0 0 0 0 0 0 0 0
0 0 0 0 0 0 0 0 0 0 0 1 2 4 7 9 10 10 9 10 12 10 9 9 6 2 0 0 1 0 0 0 0 0 0 0 0 0 0 0 0 0 0 0 0 0 0 0 0
0 0 0 0 0 0 0 0 0 0 0 1 2 6 10 11 12 12 11 11 10 9 9 11 8 2 0 0 1 0 0 0 0 0 0 0 0 0 0 0 0 0 0 0 0 0 0 0 0
0 0 0 0 0 0 0 0 0 0 0 1 3 7 10 13 15 17 15 11 8 8 9 11 8 3 1 0 0 0 0 0 0 0 0 0 0 0 0 0 0 0 0 0 0 0 0 0 0
0 0 0 0 0 0 0 0 1 1 1 1 3 6 11 17 21 23 20 13 8 8 9 9 7 5 4 2 0 0 0 0 0 0 0 0 0 0 0 0 0 0 0 0 0 0 0 0 0
0 0 0 0 0 0 0 1 2 2 2 3 3 5 13 23 29 29 25 18 12 10 10 9 7 7 7 5 1 0 0 0 0 0 0 0 0 0 0 0 0 0 0 0 0 0 0 0 0
0 0 0 0 0 0 0 1 2 3 3 4 4 7 19 33 38 35 33 28 20 16 13 10 8 7 7 6 2 0 0 0 0 0 0 0 0 0 0 0 0 0 0 0 0 0 0 0 0
0 0 0 0 0 0 0 1 2 3 2 2 4 11 25 41 47 43 41 39 31 24 20 15 10 7 6 5 4 3 2 1 0 0 0 0 0 0 0 0 0 0 0 0 0 0 0 0 0
0 0 0 0 0 0 0 0 1 2 1 1 6 17 31 46 52 49 48 46 39 32 28 23 18 13 9 8 8 8 7 4 1 1 0 0 0 0 0 0 0 0 0 0 0 0 0 0 0
0 0 0 0 0 0 0 0 0 0 0 1 8 24 40 49 52 51 49 47 42 36 32 29 25 23 19 16 13 12 10 7 3 2 1 0 0 0 0 0 0 0 0 0 0 0 0 0 0
0 0 0 0 0 0 0 0 0 1 2 4 12 27 43 50 51 49 47 46 43 37 32 29 27 26 26 23 20 16 14 11 6 3 1 0 0 0 0 0 0 0 0 0 0 0 0 0 0
0 0 0 0 0 0 0 0 1 3 6 8 13 24 37 46 51 49 46 44 40 35 31 28 25 24 25 25 24 23 20 16 10 6 3 1 1 0 0 0 0 0 0 0 0 0 0 0 0
0 0 0 0 0 0 0 0 2 4 7 9 12 19 31 43 50 48 43 39 34 30 29 27 24 22 23 25 25 25 23 18 12 7 4 2 1 0 0 1 1 0 0 0 0 0 0 0 0
0 0 0 0 0 0 0 1 3 5 7 8 11 19 30 40 45 44 39 32 26 24 25 25 22 20 22 24 25 24 22 18 12 6 3 2 1 0 1 2 1 0 0 0 0 0 0 0 0
0 0 0 0 0 0 0 1 3 4 6 9 13 22 31 37 39 39 35 27 21 19 20 21 20 21 22 23 25 25 22 17 11 5 3 2 1 0 1 1 1 0 0 0 0 0 0 0 0
0 0 0 0 0 0 0 1 2 2 4 8 14 23 31 34 35 34 31 27 23 20 19 19 20 23 24 26 27 26 20 13 7 4 3 1 0 0 0 0 0 0 0 0 0 0 0 0 0
0 0 0 0 0 0 0 1 1 1 3 7 14 21 28 32 33 30 29 29 28 26 23 21 23 27 31 32 31 28 21 13 8 6 4 2 0 0 0 0 0 0 0 0 0 0 0 0 0
0 0 0 0 0 0 0 1 2 1 2 6 13 18 23 29 31 29 29 30 31 30 28 26 28 33 37 39 38 33 26 18 12 9 7 4 1 0 0 0 0 0 0 0 0 0 0 0 0
0 0 0 0 0 0 0 1 1 1 1 4 9 13 17 24 28 29 30 31 30 29 27 27 30 35 39 41 40 33 27 21 15 11 9 7 3 1 0 0 0 0 0 0 0 0 0 0 0
0 0 0 0 0 0 0 0 0 0 0 2 6 9 13 19 24 28 30 29 27 24 22 23 28 32 35 37 34 28 23 20 15 12 12 10 6 3 0 0 0 0 0 0 0 0 0 0 0
0 0 0 0 0 0 0 0 0 0 0 2 5 7 10 15 20 25 28 28 24 20 17 18 22 25 28 29 28 24 21 20 18 15 15 13 9 4 1 0 0 0 0 0 0 0 0 0 0
0 0 0 0 0 0 0 0 0 0 0 1 4 5 7 11 16 21 25 27 24 19 16 17 18 19 21 24 25 23 21 21 20 17 16 14 10 6 2 0 0 0 0 0 0 0 0 0 0
0 0 0 0 0 0 0 0 0 0 0 1 4 6 6 8 12 17 21 24 24 20 18 18 18 16 18 21 23 22 20 19 19 18 16 15 11 7 3 1 1 1 0 0 0 0 0 0 0
0 0 0 0 0 0 0 0 0 0 0 1 4 7 7 6 9 13 16 19 20 18 17 18 17 16 15 17 19 19 17 18 19 19 17 15 12 7 2 2 2 1 0 0 0 0 0 0 0
0 0 0 0 0 0 0 0 0 0 0 1 5 8 7 5 5 8 10 12 13 13 14 15 14 14 14 15 16 15 15 17 18 18 18 15 12 6 2 1 2 1 0 0 0 0 0 0 0
0 0 0 0 0 0 0 0 0 0 1 3 6 9 8 5 3 4 4 5 6 9 11 12 11 11 12 12 12 11 14 16 17 17 17 15 11 6 2 1 1 2 1 0 0 0 0 0 0
0 0 0 0 0 0 0 0 0 0 1 2 5 7 7 5 3 1 1 1 3 6 9 10 9 7 7 8 8 9 12 14 14 14 14 12 10 6 3 2 2 2 1 0 0 0 0 0 0
0 0 0 0 0 0 0 0 0 0 0 1 3 5 6 6 3 1 0 0 2 5 8 8 6 5 4 4 5 9 12 12 12 11 11 11 9 6 4 3 3 2 1 0 0 0 0 0 0
Wind_Speed
10 9 6 5 8 6 1 2 1 2 3 2 3 1 0 2 3 6 7 16 18 19 19 18 15 16 15 15 15 15 14 14 14 13 13 12 12 11 11 11 11 12 12 12 12 12 12 12 12
8 6 6 7 7 4 2 2 2 1 3 5 4 3 1 3 6 8 11 16 19 19 19 17 18 16 16 15 15 14 14 14 14 13 12 12 12 11 11 11 12 12 12 12 12 12 12 12 11
7 7 7 6 6 3 1 2 2 3 5 4 4 2 1 4 6 8 12 19 19 18 18 18 18 17 16 15 14 14 14 14 13 13 12 12 11 11 11 11 12 12 12 12 12 11 11 11 11
6 7 7 8 6 2 2 0 2 5 5 4 4 5 5 5 4 8 17 20 19 18 18 20 18 17 16 15 15 14 14 13 13 12 12 11 11 11 11 11 11 11 11 11 11 11 10 10 10
7 7 9 8 5 1 2 3 3 6 5 6 6 4 6 5 6 13 18 20 19 18 17 20 17 17 16 15 15 14 13 13 12 12 12 11 11 11 11 11 11 11 11 10 10 10 10 9 9
7 7 8 6 4 2 1 2 5 6 5 6 6 4 6 6 10 15 18 18 18 17 17 19 18 16 16 15 14 14 13 13 12 12 11 11 11 10 10 11 10 10 10 10 9 9 9 8 8
8 7 8 5 3 4 2 1 4 5 6 6 5 4 8 9 12 15 16 16 16 16 16 17 17 16 15 14 14 13 13 12 12 11 11 11 10 10 10 10 10 9 9 9 8 8 8 7 7
7 7 8 7 5 3 3 2 2 4 4 3 5 5 7 12 14 16 15 15 15 14 15 16 15 15 14 14 14 13 13 12 12 11 11 11 11 10 9 10 9 9 8 8 8 7 7 7 7
7 9 8 5 4 3 4 3 3 3 5 5 4 1 8 18 17 17 15 14 14 14 13 14 15 13 13 13 13 13 13 12 11 10 10 10 8 9 8 10 9 8 7 7 7 6 6 6 7
9 9 5 1 3 2 2 4 4 6 8 8 7 7 13 18 18 18 18 18 17 16 14 12 13 13 12 10 10 9 9 9 8 8 9 6 5 4 6 10 8 7 7 7 6 5 6 6 6
9 9 4 4 5 6 5 4 5 8 8 8 10 13 16 18 17 17 17 17 16 16 14 13 12 12 11 8 8 6 5 6 7 8 7 5 5 5 5 5 7 6 7 5 7 6 3 2 2
9 9 8 7 4 6 6 5 6 9 4 1 5 13 17 19 18 18 17 16 16 15 15 13 13 12 10 9 7 7 6 6 6 7 7 6 4 4 4 3 4 3 3 2 2 2 2 2 2
12 9 8 8 8 8 8 8 6 6 4 3 7 14 17 17 17 16 15 14 14 15 14 14 13 12 10 8 7 7 6 6 6 5 5 5 4 4 4 3 2 2 2 3 2 2 3 2 2
8 9 8 8 7 6 8 6 7 5 5 7 10 13 15 16 16 15 15 15 15 15 15 14 13 12 11 8 7 6 6 5 6 5 6 5 4 4 3 3 2 2 2 1 2 3 3 2 2
7 9 10 9 8 6 7 9 9 6 7 9 10 12 13 14 14 15 15 15 14 14 14 14 13 13 12 10 9 7 6 6 6 5 6 5 4 4 3 3 3 2 2 3 2 2 2 3 3
10 11 11 8 7 6 9 8 7 8 9 10 10 11 12 12 14 14 14 14 13 13 14 14 12 13 12 9 8 6 6 6 5 5 6 6 5 5 4 3 3 3 3 3 2 2 2 2 2
12 12 9 7 8 6 9 7 5 7 10 10 10 11 11 12 13 13 13 13 13 13 13 14 13 13 12 10 8 7 6 5 5 5 5 6 6 5 4 2 3 3 3 2 3 2 1 2 2
10 9 8 7 6 7 10 8 5 7 10 10 10 10 11 12 13 13 13 12 12 12 13 13 13 13 12 9 7 6 6 5 4 5 5 6 5 5 4 3 3 3 3 2 1 2 1 1 2
5 8 7 4 2 6 9 7 6 8 10 10 10 11 12 11 11 12 13 12 12 12 13 13 12 12 10 8 8 8 7 6 5 5 6 6 6 5 4 3 4 3 3 2 4 3 4 2 1
10 10 8 5 3 6 6 7 5 7 10 10 10 11 12 12 12 13 14 14 14 14 14 14 13 12 11 9 7 6 6 6 6 5 6 7 6 6 5 3 4 3 3 3 3 2 2 2 2
12 11 8 5 3 6 7 9 8 7 8 9 10 10 11 13 14 14 15 15 15 15 15 13 13 13 12 11 8 7 6 6 6 7 6 7 7 6 4 5 3 3 4 3 3 4 4 2 3
12 8 7 7 8 6 6 8 7 7 9 10 11 11 11 12 13 14 16 16 16 15 14 14 14 13 13 12 11 12 9 8 8 7 6 7 7 6 6 5 4 3 3 3 4 3 3 3 3
8 3 7 8 9 8 8 9 4 7 9 10 11 11 11 12 13 14 15 16 15 15 14 14 14 13 13 13 12 12 10 8 7 8 8 7 7 6 6 5 4 4 3 3 2 2 3 3 3
7 6 6 8 10 11 7 9 6 4 6 6 9 11 11 11 12 13 14 14 14 14 13 14 15 14 14 14 13 13 12 11 10 10 9 8 6 6 7 6 5 4 3 4 3 3 3 1 1
12 10 8 9 9 8 3 7 5 1 2 4 8 10 11 11 12 12 14 14 14 15 15 15 16 15 15 15 14 13 12 12 12 11 10 8 7 7 7 6 5 4 4 4 3 3 2 2 2
13 13 9 7 7 5 5 7 3 2 1 3 6 9 10 11 12 12 14 14 15 15 15 16 16 15 15 15 14 13 13 10 9 10 9 9 7 7 8 7 6 5 5 5 4 4 4 3 2
11 12 9 9 9 8 6 5 3 3 4 5 7 9 10 11 12 12 13 14 14 15 15 16 16 15 15 15 14 13 13 11 10 11 9 8 6 7 9 8 7 6 6 5 5 3 3 4 3
9 8 7 9 8 10 8 7 3 2 2 5 7 9 10 11 11 12 12 12 12 13 14 15 15 15 14 14 13 12 12 12 10 10 10 9 8 8 9 9 8 7 7 6 5 5 4 4 3
10 10 9 8 8 9 8 3 4 2 1 4 6 8 10 11 11 11 11 11 11 12 14 14 14 14 14 14 13 13 13 12 11 10 11 10 9 10 10 9 8 8 8 7 6 5 5 5 4
9 10 10 9 9 9 9 3 6 2 1 3 4 7 9 10 11 11 11 11 11 12 13 14 14 14 14 14 13 13 13 12 12 11 11 11 10 10 10 9 9 9 8 8 7 7 6 6 6
Wind_Direction
190 196 217 234 240 234 233 94 80 144 144 134 148 169 294 38 2 58 111 148 147 145 141 148 146 145 141 137 133 131 130 128 125 124 122 120 117 114 112 109 107 106 104 103 103 102 101 100 100
184 193 224 239 255 235 150 127 159 109 101 134 155 181 165 92 62 99 138 147 149 145 146 150 145 146 142 139 136 133 131 129 127 126 124 121 118 115 112 110 108 107 106 104 103 102 101 101 101
186 221 250 245 248 272 104 113 98 113 135 164 156 162 47 77 108 128 142 150 150 148 147 141 149 148 144 142 139 137 134 133 131 128 126 122 118 114 112 112 109 107 105 104 102 101 101 102 102
200 216 234 247 236 248 299 222 146 159 162 185 179 143 104 66 114 134 146 154 151 151 149 142 153 148 146 144 141 139 137 136 133 130 127 123 119 115 113 112 110 109 107 105 103 103 103 104 107
231 241 235 233 232 216 259 274 215 196 178 181 198 156 115 97 120 141 152 155 155 154 148 144 153 150 149 147 143 141 140 137 133 131 127 123 120 118 114 113 110 110 108 105 104 104 103 104 107
221 236 240 227 187 185 227 233 212 206 190 178 194 176 104 117 141 149 154 157 157 155 149 143 153 152 151 149 147 144 143 139 136 133 130 126 123 119 115 115 112 111 109 107 105 104 101 100 104
243 242 250 247 203 185 144 207 212 204 199 188 188 170 123 141 145 151 154 160 158 156 150 151 156 156 154 151 149 146 144 141 137 136 134 130 126 122 118 116 114 114 113 111 109 106 101 97 101
256 255 237 226 221 177 129 178 213 219 185 154 194 195 147 149 150 151 154 159 158 159 156 158 158 158 159 156 153 150 147 143 140 139 137 132 131 129 128 132 117 117 118 117 113 109 103 100 102
240 245 233 214 219 157 146 198 178 206 164 168 190 67 110 141 151 154 157 161 163 164 163 163 158 161 163 158 151 155 150 145 148 145 140 156 154 140 151 111 119 122 121 120 116 112 114 125 125
225 241 233 246 273 270 197 234 189 195 193 186 171 134 134 150 159 163 167 168 169 169 168 169 161 162 164 157 152 161 160 153 162 149 155 158 128 132 117 115 124 124 125 131 122 127 165 208 155
224 245 254 250 264 278 262 242 216 224 218 207 190 163 157 162 167 173 175 175 171 171 170 167 163 167 165 158 160 161 154 150 155 151 150 142 149 145 137 143 144 147 160 155 147 181 177 157 96
231 242 257 264 275 266 264 248 229 239 242 201 185 163 166 172 175 179 180 177 173 174 173 169 166 168 169 164 161 162 158 157 158 152 164 156 154 151 139 145 137 154 150 136 164 146 120 131 158
229 246 248 258 260 262 259 248 244 237 224 178 162 165 175 179 179 181 179 177 174 175 174 171 171 168 167 165 170 164 160 159 151 153 158 162 159 158 144 134 143 159 150 163 172 148 134 151 163
230 242 252 253 246 241 243 235 222 217 191 176 170 175 181 182 179 179 178 178 177 178 175 170 174 169 167 168 169 158 159 155 157 160 153 170 168 152 148 153 161 166 179 137 178 152 167 181 147
240 244 238 227 225 222 236 224 214 186 183 183 181 181 183 181 180 183 181 178 177 178 174 172 172 169 170 170 169 161 161 162 162 151 152 166 171 155 167 159 177 158 149 152 182 166 183 187 178
225 232 230 193 208 198 235 239 165 172 190 190 185 182 184 182 184 184 179 178 178 177 174 174 173 169 170 169 167 162 165 161 159 155 155 162 163 168 184 168 157 156 182 181 171 204 199 192 204
214 225 223 182 196 203 234 256 156 180 197 196 188 185 185 183 186 185 180 178 177 175 172 173 172 170 169 166 163 161 158 161 161 160 159 159 167 175 192 169 134 181 182 189 206 147 209 192 204
209 222 221 216 184 224 241 247 200 193 205 201 192 188 189 191 189 184 179 175 176 175 171 171 170 169 167 164 161 160 161 164 167 166 157 161 168 177 189 168 156 192 174 174 157 141 161 197 213
253 249 242 235 200 243 248 246 219 198 205 204 196 192 194 194 184 179 176 173 171 172 171 171 171 170 168 167 172 170 170 169 168 169 158 167 172 173 191 169 155 204 170 173 176 182 166 185 188
237 242 240 217 202 252 258 248 217 205 209 208 203 200 195 188 181 178 176 175 175 175 174 175 178 176 176 172 172 173 166 169 167 165 159 172 173 175 179 175 183 182 164 174 181 212 223 168 202
231 238 242 248 239 229 250 235 204 197 206 207 209 208 201 193 189 183 182 181 181 179 179 178 178 178 177 170 168 162 159 169 169 170 168 173 172 172 172 177 186 178 199 168 192 200 217 206 188
228 229 250 251 247 229 239 265 204 196 206 210 209 205 201 196 193 187 184 184 184 182 180 179 177 176 174 173 176 175 178 178 174 172 163 166 169 169 169 175 172 189 183 156 198 181 213 229 212
237 234 245 249 250 257 230 262 232 188 221 216 204 202 198 194 193 189 186 186 185 182 180 178 176 178 176 181 181 185 185 179 168 166 159 169 166 173 174 171 170 181 181 160 177 162 236 225 250
213 211 221 236 245 245 246 264 261 219 235 216 195 194 191 189 190 188 185 183 182 181 180 178 178 181 180 184 186 190 185 178 170 170 166 174 168 174 174 171 175 186 170 161 174 182 189 249 299
211 220 220 219 224 237 200 257 273 314 258 223 198 191 185 184 184 185 184 183 181 182 182 180 180 182 183 186 186 187 184 181 178 176 175 179 175 174 168 175 179 177 161 164 169 178 179 183 193
211 228 241 250 247 245 199 247 288 54 190 197 193 188 184 184 182 184 186 185 185 185 184 182 182 184 184 185 183 182 182 185 182 183 178 182 182 171 163 175 176 172 172 171 168 180 171 165 183
209 227 251 261 265 264 247 248 243 166 195 194 185 182 184 185 183 184 185 187 189 186 186 185 183 183 184 185 181 182 186 188 180 176 182 180 176 164 168 176 174 174 174 171 182 171 170 166 188
245 222 222 244 257 259 253 251 260 183 196 185 186 185 183 182 183 184 185 187 188 185 184 184 184 184 183 182 181 180 184 184 178 180 180 175 172 167 171 175 176 176 175 177 189 176 165 177 182
201 216 234 245 258 267 267 261 53 4 219 188 182 182 181 182 182 181 181 181 182 184 182 180 181 180 180 180 180 179 181 179 179 181 181 178 176 175 177 176 179 181 182 182 189 197 175 192 184
236 234 230 241 244 253 273 281 85 74 148 180 174 173 178 182 180 176 172 171 177 181 180 178 179 179 179 176 178 180 178 178 182 184 184 181 180 182 181 180 184 188 188 188 193 199 192 197 196